Location: Bidwell Hollow
(37.7387°N, 90.1707°W)
Time: 23:51:21
(UTC+00:00)

A-11 Canister half - Visible Passes

Search period start: 11 May 2026 00:00
Search period end: 21 May 2026 00:00
Orbit: 1515 x 1684 km, 47.2° (Epoch: 11 May)

Date Brightness Start Highest point End Pass type
(mag) Time Alt. Az. Time Alt. Az. Time Alt. Az.
11 May 9.1 03:09:42 10° SSW 03:18:33 46° SE 03:27:12 10° ENE visible
11 May 9.0 05:13:48 10° WSW 05:23:09 71° NNW 05:32:24 10° ENE visible
11 May 9.7 07:20:20 10° WNW 07:29:12 47° N 07:38:05 10° ENE visible
11 May 9.4 09:26:12 10° WNW 09:35:23 64° NNE 09:44:42 10° ESE visible
12 May 9.2 02:46:50 10° SSW 02:55:34 43° SE 03:04:07 10° ENE visible
12 May 9.0 04:50:41 10° WSW 05:00:05 74° NNW 05:09:21 10° ENE visible
12 May 9.7 06:57:12 10° WNW 07:06:05 47° N 07:14:58 10° ENE visible
12 May 9.4 09:03:09 10° WNW 09:12:19 62° NNE 09:21:35 10° ESE visible
13 May 9.3 02:23:58 10° SSW 02:32:36 40° SE 02:41:01 10° ENE visible
13 May 9.0 04:27:35 10° WSW 04:37:02 77° NNW 04:46:19 10° ENE visible
13 May 9.7 06:34:03 10° WNW 06:42:58 48° N 06:51:50 10° ENE visible
13 May 9.4 08:40:05 10° WNW 08:49:13 60° NNE 08:58:27 10° E visible
14 May 9.4 02:01:08 10° SSW 02:09:37 37° SE 02:17:54 10° ENE visible
14 May 9.0 04:04:29 10° WSW 04:13:59 80° NNW 04:23:17 10° ENE visible
14 May 9.7 06:10:54 10° W 06:19:51 48° N 06:28:43 10° ENE visible
14 May 9.5 08:17:01 10° WNW 08:26:08 58° NNE 08:35:18 10° E visible
14 May 9.0 10:22:07 10° WNW 10:31:14 65° SW 10:40:30 10° SE visible
15 May 9.5 01:38:18 10° SSW 01:46:38 35° SE 01:54:45 10° ENE visible
15 May 8.9 03:41:24 10° WSW 03:50:55 83° NNW 04:00:14 10° ENE visible
15 May 9.7 05:47:45 10° W 05:56:44 49° N 06:05:37 10° ENE visible
15 May 9.5 07:53:57 10° WNW 08:03:03 57° NNE 08:12:10 10° E visible
15 May 8.9 09:59:03 10° WNW 10:08:13 68° SW 10:17:31 10° SE visible
16 May 9.6 01:15:31 10° S 01:23:40 32° SE 01:31:37 10° ENE visible
16 May 8.9 03:18:19 10° WSW 03:27:52 87° NNW 03:37:12 10° ENE visible
16 May 9.7 05:24:35 10° W 05:33:36 49° N 05:42:31 10° ENE visible
16 May 9.5 07:30:53 10° WNW 07:39:57 55° NNE 07:49:01 10° E visible
16 May 8.9 09:36:01 10° WNW 09:45:12 72° SW 09:54:31 10° SE visible
17 May 8.9 02:55:15 10° SW 03:04:50 90° SSE 03:14:10 10° ENE visible
17 May 9.7 05:01:26 10° W 05:10:30 50° N 05:19:25 10° ENE visible
17 May 9.5 07:07:47 10° WNW 07:16:51 54° NNE 07:25:53 10° E visible
17 May 8.9 09:12:58 10° WNW 09:22:12 76° SW 09:31:31 10° SE visible
18 May 8.9 02:32:11 10° SW 02:41:47 86° SE 02:51:07 10° ENE visible
18 May 9.7 04:38:16 10° W 04:47:23 51° NNW 04:56:20 10° ENE visible
18 May 9.6 06:44:42 10° WNW 06:53:44 52° NNE 07:02:44 10° E visible
18 May 8.8 08:49:55 10° WNW 08:59:10 80° SW 09:08:31 10° SE visible
19 May 9.0 02:09:08 10° SW 02:18:45 82° SE 02:28:06 10° ENE visible
19 May 9.6 04:15:06 10° W 04:24:16 52° NNW 04:33:16 10° ENE visible
19 May 9.6 06:21:36 10° WNW 06:30:38 51° NNE 06:39:36 10° E visible
19 May 8.8 08:26:52 10° WNW 08:36:09 84° SW 08:45:29 10° SE visible
20 May 9.0 01:46:06 10° SW 01:55:43 79° SE 02:05:03 10° ENE visible
20 May 9.6 03:51:56 10° W 04:01:09 53° NNW 04:10:11 10° ENE visible
20 May 9.6 05:58:30 10° WNW 06:07:32 50° N 06:16:28 10° E visible
20 May 8.8 08:03:50 10° WNW 08:13:07 88° SSW 08:22:27 10° SE visible
20 May 9.6 10:09:41 10° WNW 10:17:07 28° SW 10:24:39 10° S visible
